QPF
0.00 0.00 0.00 0.00 0.00 0.00 0.00 0.00 0.00 0.00 0.00 0.00 0.00 0.00 0.00 0.00 0.00 0.00 0.00 0.00 0.00 0.00 0.00 0.00 0.00 0.00 0.00 0.00 0.00 0.00 0.00 0.00 0.00 0.00 0.00 0.00 0.00 0.00 0.00 0.00 0.00 0.00 0.00 0.00 0.00
0.00 0.00 0.00 0.00 0.00 0.00 0.00 0.00 0.00 0.00 0.00 0.00 0.00 0.00 0.00 0.00 0.00 0.00 0.00 0.00 0.00 0.00 0.00 0.00 0.00 0.00 0.00 0.00 0.00 0.00 0.00 0.00 0.00 0.00 0.00 0.00 0.00 0.00 0.00 0.00 0.00 0.00 0.00 0.00 0.00
0.00 0.00 0.00 0.00 0.00 0.00 0.00 0.00 0.00 0.00 0.00 0.00 0.00 0.00 0.00 0.00 0.00 0.00 0.00 0.00 0.00 0.00 0.00 0.00 0.00 0.00 0.00 0.00 0.00 0.00 0.00 0.00 0.00 0.00 0.00 0.00 0.00 0.00 0.00 0.00 0.00 0.00 0.00 0.00 0.00
0.00 0.00 0.00 0.00 0.00 0.00 0.00 0.00 0.00 0.00 0.00 0.00 0.00 0.00 0.00 0.00 0.00 0.00 0.00 0.00 0.00 0.00 0.00 0.00 0.00 0.00 0.00 0.00 0.00 0.00 0.00 0.00 0.00 0.00 0.00 0.00 0.00 0.00 0.00 0.00 0.00 0.00 0.00 0.00 0.00
0.00 0.00 0.00 0.00 0.00 0.00 0.00 0.00 0.00 0.00 0.00 0.00 0.00 0.00 0.00 0.00 0.00 0.00 0.00 0.00 0.00 0.00 0.00 0.00 0.00 0.00 0.00 0.00 0.00 0.00 0.00 0.00 0.00 0.00 0.00 0.00 0.00 0.00 0.00 0.00 0.00 0.00 0.00 0.00 0.00
0.00 0.00 0.00 0.00 0.00 0.00 0.00 0.00 0.00 0.00 0.00 0.00 0.00 0.00 0.00 0.00 0.00 0.00 0.00 0.00 0.00 0.00 0.00 0.00 0.00 0.00 0.00 0.00 0.00 0.00 0.00 0.00 0.00 0.00 0.00 0.00 0.00 0.00 0.00 0.00 0.00 0.00 0.00 0.00 0.00
0.00 0.00 0.00 0.00 0.00 0.00 0.00 0.00 0.00 0.00 0.00 0.00 0.00 0.00 0.00 0.00 0.00 0.00 0.00 0.00 0.00 0.00 0.00 0.00 0.00 0.00 0.00 0.00 0.00 0.00 0.00 0.00 0.00 0.00 0.00 0.00 0.00 0.00 0.00 0.00 0.00 0.00 0.00 0.00 0.00
0.00 0.00 0.00 0.00 0.00 0.00 0.00 0.00 0.00 0.00 0.00 0.00 0.00 0.00 0.00 0.00 0.00 0.00 0.00 0.00 0.00 0.00 0.00 0.00 0.00 0.00 0.00 0.00 0.00 0.00 0.00 0.00 0.00 0.00 0.00 0.00 0.00 0.00 0.00 0.00 0.00 0.00 0.00 0.00 0.00
0.00 0.00 0.00 0.00 0.00 0.00 0.00 0.00 0.00 0.00 0.00 0.00 0.00 0.00 0.00 0.00 0.00 0.00 0.00 0.00 0.00 0.00 0.00 0.00 0.00 0.00 0.00 0.00 0.00 0.00 0.00 0.00 0.00 0.00 0.00 0.00 0.00 0.00 0.00 0.00 0.00 0.00 0.00 0.00 0.00
0.00 0.00 0.00 0.00 0.00 0.00 0.00 0.00 0.00 0.00 0.00 0.00 0.00 0.00 0.00 0.00 0.00 0.00 0.00 0.00 0.00 0.00 0.00 0.00 0.00 0.00 0.00 0.00 0.00 0.00 0.00 0.00 0.00 0.00 0.00 0.00 0.00 0.00 0.00 0.00 0.00 0.00 0.00 0.00 0.00
0.00 0.00 0.00 0.00 0.00 0.00 0.00 0.00 0.00 0.00 0.00 0.00 0.00 0.00 0.00 0.00 0.00 0.00 0.00 0.00 0.00 0.00 0.00 0.00 0.00 0.00 0.00 0.00 0.00 0.00 0.00 0.00 0.00 0.00 0.00 0.00 0.00 0.00 0.00 0.00 0.00 0.00 0.00 0.00 0.00
0.00 0.00 0.00 0.00 0.01 0.00 0.00 0.00 0.00 0.00 0.00 0.00 0.00 0.00 0.00 0.00 0.00 0.00 0.00 0.00 0.00 0.00 0.00 0.00 0.00 0.00 0.00 0.00 0.00 0.00 0.00 0.00 0.00 0.00 0.00 0.00 0.00 0.00 0.00 0.00 0.00 0.00 0.00 0.00 0.00
0.05 0.00 0.00 0.00 0.01 0.00 0.00 0.00 0.00 0.00 0.00 0.00 0.00 0.00 0.00 0.00 0.00 0.00 0.00 0.00 0.00 0.00 0.00 0.00 0.00 0.00 0.00 0.00 0.00 0.00 0.00 0.00 0.00 0.00 0.00 0.00 0.00 0.00 0.00 0.00 0.00 0.00 0.00 0.00 0.00
0.11 0.03 0.00 0.01 0.01 0.00 0.00 0.00 0.00 0.00 0.00 0.00 0.00 0.00 0.00 0.00 0.00 0.00 0.00 0.00 0.00 0.00 0.00 0.00 0.00 0.00 0.00 0.00 0.00 0.00 0.00 0.00 0.00 0.00 0.00 0.00 0.00 0.00 0.00 0.00 0.00 0.00 0.00 0.00 0.00
0.05 0.03 0.01 0.00 0.00 0.00 0.00 0.00 0.00 0.00 0.00 0.00 0.00 0.00 0.00 0.00 0.00 0.00 0.00 0.00 0.00 0.00 0.00 0.00 0.00 0.00 0.00 0.00 0.00 0.00 0.00 0.00 0.00 0.00 0.00 0.00 0.00 0.00 0.00 0.00 0.00 0.00 0.00 0.00 0.00
0.03 0.01 0.01 0.00 0.00 0.00 0.00 0.00 0.00 0.00 0.00 0.00 0.00 0.00 0.00 0.00 0.00 0.00 0.00 0.00 0.00 0.00 0.00 0.00 0.00 0.00 0.00 0.00 0.00 0.00 0.00 0.00 0.00 0.00 0.00 0.00 0.00 0.00 0.00 0.00 0.00 0.00 0.00 0.00 0.00
0.13 0.01 0.00 0.00 0.00 0.00 0.00 0.00 0.00 0.00 0.00 0.00 0.00 0.00 0.00 0.00 0.00 0.00 0.00 0.00 0.00 0.00 0.00 0.00 0.00 0.00 0.00 0.00 0.00 0.00 0.00 0.00 0.00 0.00 0.00 0.00 0.00 0.00 0.00 0.00 0.00 0.00 0.00 0.00 0.00
0.18 0.04 0.00 0.00 0.00 0.00 0.00 0.00 0.00 0.00 0.00 0.00 0.00 0.00 0.00 0.00 0.00 0.00 0.00 0.00 0.00 0.00 0.00 0.00 0.00 0.00 0.00 0.00 0.00 0.00 0.00 0.00 0.00 0.00 0.00 0.00 0.00 0.00 0.00 0.00 0.00 0.00 0.00 0.00 0.00
0.27 0.12 0.03 0.00 0.00 0.00 0.00 0.00 0.00 0.00 0.00 0.00 0.00 0.00 0.00 0.00 0.00 0.00 0.00 0.00 0.00 0.00 0.00 0.00 0.00 0.00 0.00 0.00 0.00 0.00 0.00 0.00 0.00 0.00 0.00 0.00 0.00 0.00 0.00 0.00 0.00 0.00 0.00 0.00 0.00
0.36 0.25 0.04 0.00 0.00 0.00 0.00 0.00 0.00 0.00 0.00 0.00 0.00 0.00 0.00 0.00 0.00 0.00 0.00 0.00 0.00 0.00 0.00 0.00 0.00 0.00 0.00 0.00 0.00 0.00 0.00 0.00 0.00 0.00 0.00 0.00 0.00 0.00 0.00 0.00 0.00 0.00 0.00 0.00 0.00
0.32 0.22 0.03 0.00 0.00 0.00 0.00 0.00 0.00 0.00 0.00 0.00 0.00 0.00 0.00 0.00 0.00 0.00 0.00 0.00 0.00 0.00 0.00 0.00 0.00 0.00 0.00 0.00 0.00 0.00 0.00 0.00 0.00 0.00 0.00 0.00 0.00 0.00 0.00 0.00 0.00 0.00 0.00 0.00 0.00
0.35 0.14 0.05 0.01 0.00 0.00 0.00 0.00 0.00 0.00 0.00 0.00 0.00 0.00 0.00 0.00 0.00 0.00 0.00 0.00 0.00 0.00 0.00 0.00 0.00 0.00 0.00 0.00 0.00 0.00 0.00 0.00 0.00 0.00 0.00 0.00 0.00 0.00 0.00 0.00 0.00 0.00 0.00 0.00 0.00
0.31 0.09 0.05 0.01 0.00 0.00 0.00 0.00 0.00 0.00 0.00 0.00 0.00 0.00 0.00 0.00 0.00 0.00 0.00 0.00 0.00 0.00 0.00 0.00 0.00 0.00 0.00 0.00 0.00 0.00 0.00 0.00 0.00 0.00 0.00 0.00 0.00 0.00 0.00 0.00 0.00 0.00 0.00 0.00 0.00
0.22 0.15 0.07 0.01 0.00 0.00 0.00 0.00 0.00 0.00 0.00 0.00 0.00 0.00 0.00 0.00 0.00 0.00 0.00 0.00 0.00 0.00 0.00 0.00 0.00 0.00 0.00 0.00 0.00 0.00 0.00 0.00 0.00 0.00 0.00 0.00 0.00 0.00 0.00 0.00 0.00 0.00 0.00 0.00 0.00
0.17 0.06 0.03 0.00 0.00 0.00 0.00 0.00 0.00 0.00 0.00 0.00 0.00 0.00 0.00 0.00 0.00 0.00 0.00 0.00 0.00 0.00 0.00 0.00 0.00 0.00 0.00 0.00 0.00 0.00 0.00 0.00 0.00 0.00 0.00 0.00 0.00 0.00 0.00 0.00 0.00 0.00 0.00 0.00 0.00
0.07 0.01 0.00 0.00 0.00 0.00 0.00 0.00 0.00 0.00 0.00 0.00 0.00 0.00 0.00 0.00 0.00 0.00 0.00 0.00 0.00 0.00 0.00 0.00 0.00 0.00 0.00 0.00 0.00 0.00 0.00 0.00 0.00 0.00 0.00 0.00 0.00 0.00 0.00 0.00 0.00 0.00 0.00 0.00 0.00
0.00 0.00 0.00 0.00 0.00 0.00 0.00 0.00 0.00 0.00 0.00 0.00 0.00 0.00 0.00 0.00 0.00 0.00 0.00 0.00 0.00 0.00 0.00 0.00 0.00 0.00 0.00 0.00 0.00 0.00 0.00 0.00 0.00 0.00 0.00 0.00 0.00 0.00 0.00 0.00 0.00 0.00 0.00 0.00 0.00
MSLP
1018.24 1018.33 1018.30 1018.34 1018.43 1018.47 1018.52 1018.16 1018.22 1018.05 1018.02 1017.90 1017.79 1017.46 1017.30 1017.19 1016.65 1016.07 1015.42 1013.56 1013.29 1013.24 1013.58 1013.57 1013.60 1013.79 1013.91 1014.34 1014.64 1015.22 1016.33 1016.48 1015.71 1015.07 1014.55 1014.00 1013.81 1013.76 1013.78 1014.04 1014.47 1014.99 1015.24 1015.30 1015.49
1017.92 1018.01 1018.12 1018.21 1018.27 1018.21 1018.29 1017.96 1018.01 1018.00 1017.73 1017.79 1017.48 1017.43 1017.24 1017.20 1016.82 1015.44 1013.37 1013.01 1012.99 1013.20 1013.62 1013.72 1013.85 1013.98 1014.38 1014.57 1014.94 1015.48 1016.36 1015.88 1015.20 1014.96 1014.66 1014.39 1014.20 1014.11 1014.16 1014.55 1015.03 1015.26 1015.48 1015.60 1015.78
1017.50 1017.62 1017.71 1017.92 1018.00 1018.08 1017.96 1017.81 1017.86 1017.85 1017.64 1017.74 1017.40 1017.37 1017.25 1017.20 1016.58 1013.82 1012.62 1012.81 1012.93 1013.18 1013.38 1013.59 1013.90 1014.38 1014.73 1014.74 1014.98 1015.47 1015.78 1015.44 1014.90 1014.70 1014.59 1014.56 1014.43 1014.32 1014.44 1014.83 1015.04 1015.39 1015.69 1015.89 1016.12
1016.96 1017.21 1017.44 1017.62 1017.70 1017.76 1017.73 1017.78 1017.68 1017.59 1017.55 1017.60 1017.48 1017.27 1017.17 1017.11 1015.69 1013.01 1012.55 1012.63 1012.89 1013.26 1013.50 1013.71 1013.95 1014.24 1014.60 1014.77 1014.73 1015.25 1015.09 1015.04 1014.74 1014.59 1014.59 1014.62 1014.62 1014.68 1014.73 1014.85 1014.96 1015.35 1015.60 1015.98 1016.34
1016.54 1016.65 1016.89 1017.15 1017.32 1017.49 1017.50 1017.55 1017.46 1017.51 1017.46 1017.63 1017.60 1017.23 1016.91 1016.52 1014.52 1012.84 1012.87 1012.87 1013.09 1013.40 1013.50 1013.70 1013.90 1014.14 1014.51 1014.61 1014.66 1014.93 1014.88 1014.80 1014.67 1014.67 1014.51 1014.60 1014.80 1014.98 1014.90 1014.94 1015.32 1015.85 1016.13 1016.44 1016.57
1016.05 1016.26 1016.41 1016.64 1016.83 1017.05 1017.21 1017.33 1017.47 1017.63 1017.63 1017.56 1017.51 1017.08 1017.08 1015.81 1012.86 1012.82 1013.04 1013.21 1013.09 1013.34 1013.35 1013.58 1013.71 1013.82 1014.27 1014.55 1014.79 1014.85 1014.86 1014.83 1014.71 1014.71 1014.81 1014.92 1015.14 1015.22 1014.82 1015.11 1015.79 1016.12 1016.44 1016.71 1016.68
1015.60 1015.91 1016.18 1016.40 1016.63 1016.84 1017.07 1017.20 1017.45 1017.55 1017.48 1017.46 1017.44 1016.97 1016.77 1014.59 1012.75 1012.97 1012.86 1013.10 1012.93 1013.09 1013.19 1013.15 1013.35 1013.74 1014.19 1014.52 1014.74 1014.92 1015.27 1015.16 1014.62 1014.56 1014.89 1015.07 1015.57 1015.19 1014.94 1015.46 1016.30 1016.83 1016.93 1017.02 1017.01
1014.91 1015.34 1015.74 1016.14 1016.47 1016.65 1016.89 1017.15 1017.28 1017.29 1017.34 1017.34 1017.24 1017.09 1015.81 1013.21 1012.89 1013.22 1013.01 1012.88 1012.81 1012.83 1012.95 1012.98 1013.14 1013.68 1014.28 1014.71 1015.08 1015.51 1015.75 1015.80 1014.69 1014.69 1014.93 1015.31 1015.40 1014.92 1015.11 1015.79 1016.77 1017.25 1017.52 1017.42 1017.39
1014.32 1014.67 1015.08 1015.39 1015.89 1016.28 1016.58 1016.80 1016.93 1017.00 1017.21 1017.20 1017.29 1017.02 1015.14 1012.87 1012.77 1012.42 1012.50 1012.77 1012.75 1012.85 1012.97 1013.13 1013.36 1014.22 1014.82 1015.51 1016.18 1016.25 1016.24 1016.04 1015.22 1014.89 1015.21 1015.66 1015.68 1014.98 1015.22 1016.09 1017.11 1017.61 1018.00 1017.85 1017.72
1013.72 1014.18 1014.62 1015.05 1015.52 1016.05 1016.43 1016.72 1016.93 1016.96 1016.99 1016.96 1016.72 1016.66 1014.30 1012.78 1012.28 1012.23 1012.36 1012.62 1012.88 1013.21 1013.59 1013.78 1014.48 1015.06 1015.89 1016.36 1016.85 1016.60 1016.49 1016.01 1015.56 1015.18 1015.37 1015.82 1015.60 1015.56 1015.52 1016.18 1017.04 1017.76 1018.17 1018.19 1017.96
1012.98 1013.65 1014.17 1014.72 1015.19 1015.77 1016.58 1017.06 1017.68 1017.24 1016.60 1015.27 1014.82 1014.18 1013.05 1012.43 1011.99 1012.14 1012.28 1012.79 1013.28 1013.71 1014.32 1014.54 1015.27 1015.48 1015.72 1016.15 1016.12 1016.34 1016.36 1016.05 1015.56 1015.02 1015.41 1015.50 1015.65 1015.49 1015.59 1016.38 1017.29 1018.02 1018.30 1018.32 1018.19
1012.03 1012.89 1013.64 1014.16 1014.74 1015.45 1016.25 1016.20 1014.84 1014.25 1015.07 1014.56 1014.49 1013.95 1012.97 1012.63 1012.49 1012.18 1012.20 1013.09 1013.61 1014.11 1014.54 1015.16 1015.30 1015.02 1015.33 1015.73 1016.03 1016.06 1016.12 1016.03 1015.32 1015.27 1015.71 1015.64 1015.59 1015.08 1015.32 1015.69 1016.26 1017.17 1018.02 1018.12 1018.14
1011.16 1012.08 1012.98 1013.60 1014.48 1015.35 1015.40 1014.71 1014.03 1013.79 1014.35 1013.68 1013.19 1013.18 1012.65 1012.76 1012.63 1012.20 1012.26 1012.94 1013.47 1014.22 1014.68 1014.78 1014.64 1014.54 1015.15 1015.39 1015.71 1015.65 1015.88 1015.82 1015.66 1015.33 1015.77 1016.13 1015.54 1014.91 1014.45 1014.85 1015.52 1016.72 1017.24 1017.87 1017.75
1010.16 1010.99 1012.46 1013.32 1014.88 1014.66 1014.66 1013.82 1014.03 1014.14 1014.43 1013.26 1012.47 1011.53 1011.90 1012.29 1012.39 1011.83 1011.92 1012.62 1013.36 1013.94 1014.56 1014.76 1014.33 1014.47 1014.63 1014.90 1015.10 1015.34 1015.23 1015.51 1015.79 1016.28 1016.63 1016.60 1016.25 1015.09 1014.61 1014.87 1015.26 1016.33 1017.29 1017.70 1018.01
1009.07 1010.54 1011.44 1012.25 1012.67 1013.31 1012.21 1013.24 1013.98 1014.30 1014.24 1012.08 1011.62 1010.50 1010.78 1011.83 1011.81 1011.79 1011.55 1012.27 1013.04 1013.58 1014.23 1014.19 1013.99 1014.07 1014.15 1014.06 1014.50 1014.77 1015.00 1015.58 1015.99 1016.60 1017.11 1017.13 1017.44 1014.71 1014.65 1015.07 1015.32 1016.07 1016.79 1017.42 1017.71
1008.22 1009.48 1010.59 1011.97 1012.24 1011.56 1011.70 1012.94 1014.02 1014.66 1013.38 1011.62 1010.95 1010.99 1011.50 1011.87 1011.86 1011.88 1011.87 1012.19 1012.60 1013.39 1013.69 1013.82 1013.64 1013.58 1013.48 1013.81 1014.05 1014.55 1015.38 1016.11 1016.65 1017.42 1017.65 1016.53 1016.79 1014.41 1014.37 1013.95 1014.69 1015.51 1016.32 1016.91 1017.67
1007.10 1008.44 1009.71 1010.34 1010.85 1011.11 1011.63 1013.31 1014.37 1013.39 1011.95 1011.48 1011.19 1011.23 1011.57 1011.96 1012.33 1012.17 1012.29 1012.67 1012.92 1013.66 1014.00 1013.90 1013.59 1013.42 1013.44 1014.00 1014.41 1014.76 1015.72 1016.73 1017.77 1018.08 1017.45 1016.33 1016.46 1013.66 1012.80 1012.91 1013.08 1014.07 1015.48 1016.43 1017.25
1006.96 1007.60 1008.76 1009.64 1010.04 1010.89 1011.43 1012.71 1012.83 1011.39 1011.15 1010.57 1010.84 1011.47 1011.98 1012.07 1012.60 1012.48 1012.60 1012.97 1012.98 1013.14 1013.79 1014.04 1014.04 1013.42 1013.20 1013.37 1014.04 1014.90 1015.43 1016.38 1016.99 1017.50 1016.98 1016.25 1015.07 1012.63 1012.02 1012.12 1012.57 1013.34 1014.56 1015.84 1016.85
1006.87 1007.54 1008.27 1009.29 1009.88 1010.70 1011.40 1011.37 1009.66 1009.93 1010.00 1010.30 1011.04 1011.76 1012.19 1012.24 1012.38 1012.73 1012.82 1012.77 1012.39 1012.55 1013.21 1013.63 1013.58 1013.19 1013.05 1013.18 1013.65 1014.78 1015.35 1015.65 1016.65 1017.22 1016.96 1015.47 1013.92 1012.12 1011.93 1012.19 1012.74 1013.59 1014.63 1015.47 1016.22
1005.90 1006.65 1007.32 1008.28 1009.73 1010.66 1010.98 1009.47 1009.13 1008.79 1008.70 1009.41 1010.42 1011.10 1011.75 1012.11 1012.48 1012.65 1012.78 1012.15 1012.04 1011.90 1012.09 1012.71 1013.42 1013.50 1013.40 1013.39 1013.79 1013.89 1014.71 1015.76 1016.59 1017.12 1016.64 1015.17 1014.23 1012.60 1012.16 1012.36 1013.04 1013.85 1014.17 1014.86 1015.50
1004.84 1005.49 1006.63 1008.20 1009.72 1010.35 1008.68 1008.80 1008.30 1007.67 1007.77 1008.62 1009.50 1010.51 1011.01 1011.64 1011.97 1012.26 1012.07 1011.40 1011.14 1011.31 1011.76 1012.55 1012.93 1013.80 1013.57 1013.37 1013.35 1014.21 1014.57 1015.33 1016.01 1016.36 1016.23 1015.40 1013.52 1011.89 1011.86 1012.06 1012.62 1013.23 1013.72 1014.07 1014.69
1003.93 1005.24 1006.22 1007.71 1009.33 1008.82 1008.49 1007.91 1007.37 1007.16 1007.44 1007.77 1008.16 1008.99 1009.91 1010.72 1011.46 1011.74 1011.41 1010.67 1010.13 1010.62 1011.65 1011.95 1012.80 1013.53 1013.14 1012.91 1012.97 1013.22 1013.69 1014.59 1015.80 1016.11 1015.86 1015.12 1013.12 1011.50 1011.62 1011.77 1012.19 1012.45 1013.06 1013.57 1014.09
1003.76 1005.40 1006.81 1007.14 1007.15 1007.70 1008.07 1007.68 1007.12 1006.90 1007.11 1007.54 1007.95 1008.13 1008.84 1009.87 1010.67 1010.76 1010.68 1010.10 1010.03 1010.21 1010.49 1011.32 1012.16 1012.97 1013.15 1013.38 1013.21 1013.23 1013.34 1013.72 1014.48 1014.98 1015.06 1014.72 1012.74 1011.47 1011.38 1011.44 1011.84 1012.52 1012.87 1013.29 1014.12
1003.21 1004.47 1006.36 1007.31 1007.11 1006.72 1007.10 1007.12 1007.03 1006.70 1006.83 1007.15 1007.39 1007.87 1008.54 1009.26 1009.45 1010.21 1010.22 1010.18 1010.19 1010.16 1010.24 1010.50 1011.55 1011.78 1011.78 1011.77 1012.00 1012.63 1012.53 1013.01 1013.67 1014.32 1014.23 1013.48 1012.60 1011.65 1011.58 1011.62 1011.81 1012.11 1012.54 1013.03 1013.67
1001.89 1002.79 1002.83 1004.48 1006.14 1006.17 1006.47 1006.38 1006.45 1006.36 1006.48 1006.67 1007.30 1007.84 1008.26 1008.92 1009.43 1009.90 1010.21 1010.56 1010.58 1010.47 1010.57 1010.77 1011.46 1011.71 1011.55 1011.46 1011.69 1011.68 1011.81 1012.27 1012.80 1012.74 1013.09 1011.96 1012.36 1011.03 1011.24 1011.39 1011.47 1011.77 1012.42 1013.18 1013.76
1000.69 1001.34 1002.67 1003.08 1005.68 1006.15 1005.81 1005.36 1005.31 1005.57 1005.79 1006.38 1006.88 1007.50 1007.89 1008.53 1008.72 1009.29 1009.74 1010.16 1010.32 1010.84 1010.81 1011.04 1011.32 1011.61 1011.76 1011.47 1011.55 1011.54 1011.42 1011.56 1011.80 1011.91 1012.08 1011.78 1011.36 1010.72 1010.60 1010.94 1011.46 1011.85 1012.37 1013.12 1013.75
999.91 999.82 1001.29 1003.18 1005.06 1005.36 1003.77 1004.24 1004.59 1005.33 1005.72 1005.88 1006.34 1007.02 1007.73 1008.14 1008.36 1008.51 1008.83 1009.29 1009.49 1010.17 1011.00 1011.25 1011.62 1012.14 1012.23 1011.85 1011.88 1011.70 1010.92 1010.79 1010.89 1010.78 1010.74 1011.27 1010.35 1010.56 1010.78 1011.09 1011.45 1011.87 1012.22 1012.65 1013.35
Thickness
5647 5650 5653 5655 5658 5661 5663 5672 5675 5681 5684 5687 5692 5699 5704 5708 5715 5722 5723 5744 5749 5752 5751 5750 5749 5747 5747 5738 5741 5732 5698 5692 5710 5713 5719 5730 5732 5735 5741 5735 5733 5729 5730 5734 5734
5642 5644 5647 5649 5651 5656 5658 5666 5669 5673 5680 5682 5688 5692 5698 5702 5708 5714 5741 5746 5748 5749 5744 5739 5735 5738 5727 5731 5728 5713 5690 5707 5721 5721 5719 5724 5727 5729 5729 5723 5724 5726 5730 5731 5731
5637 5639 5642 5644 5647 5650 5654 5660 5662 5666 5673 5675 5682 5685 5690 5696 5699 5719 5741 5742 5743 5744 5744 5740 5736 5728 5719 5725 5723 5713 5697 5715 5724 5724 5724 5722 5723 5729 5722 5717 5721 5720 5722 5724 5723
5633 5634 5636 5638 5642 5645 5650 5652 5657 5661 5666 5669 5674 5679 5684 5688 5683 5726 5735 5738 5738 5738 5736 5731 5727 5720 5713 5711 5722 5709 5716 5719 5723 5725 5723 5720 5723 5719 5720 5719 5726 5723 5724 5719 5715
5628 5630 5632 5634 5638 5640 5644 5647 5652 5655 5659 5661 5665 5672 5679 5679 5691 5722 5726 5730 5732 5729 5726 5723 5719 5715 5705 5712 5716 5709 5714 5718 5722 5720 5723 5722 5716 5714 5716 5722 5721 5716 5713 5710 5710
5623 5625 5627 5629 5632 5635 5639 5642 5643 5645 5649 5654 5658 5666 5668 5666 5710 5714 5718 5721 5724 5721 5720 5720 5718 5718 5710 5708 5705 5711 5713 5711 5715 5717 5716 5712 5710 5712 5719 5718 5713 5711 5706 5703 5704
5616 5618 5620 5622 5625 5627 5629 5634 5635 5638 5643 5647 5651 5659 5658 5671 5704 5704 5710 5711 5718 5717 5713 5721 5720 5713 5710 5702 5710 5709 5698 5701 5707 5712 5709 5711 5699 5702 5716 5713 5704 5700 5699 5699 5699
5610 5612 5613 5615 5617 5621 5622 5624 5628 5633 5636 5640 5644 5649 5653 5686 5696 5695 5702 5704 5712 5713 5713 5717 5717 5709 5704 5705 5695 5691 5687 5677 5703 5703 5707 5704 5683 5706 5710 5705 5696 5691 5690 5692 5693
5606 5608 5610 5612 5613 5616 5618 5619 5623 5627 5629 5633 5636 5640 5647 5682 5684 5693 5697 5691 5698 5702 5705 5707 5705 5693 5693 5675 5666 5669 5664 5672 5686 5700 5696 5693 5685 5705 5705 5700 5691 5683 5680 5685 5686
5600 5602 5604 5605 5607 5608 5609 5610 5614 5619 5623 5625 5632 5631 5655 5665 5679 5684 5690 5689 5685 5684 5681 5682 5672 5667 5664 5655 5640 5658 5663 5672 5676 5691 5688 5681 5679 5693 5699 5694 5688 5678 5674 5676 5679
5596 5596 5598 5599 5600 5601 5599 5599 5599 5607 5615 5625 5634 5641 5658 5667 5678 5675 5680 5675 5672 5666 5653 5664 5650 5650 5662 5657 5665 5663 5662 5661 5671 5688 5682 5677 5674 5683 5692 5690 5678 5672 5666 5670 5672
5594 5593 5592 5594 5595 5594 5593 5598 5613 5624 5613 5626 5629 5637 5652 5659 5653 5664 5672 5656 5653 5647 5652 5643 5638 5661 5663 5658 5658 5658 5659 5656 5668 5678 5674 5671 5673 5684 5686 5685 5681 5677 5662 5665 5667
5591 5589 5589 5589 5587 5588 5593 5603 5613 5620 5607 5624 5631 5632 5640 5646 5641 5649 5658 5652 5647 5638 5636 5634 5652 5658 5652 5650 5649 5655 5648 5652 5655 5667 5666 5660 5665 5674 5689 5687 5682 5675 5670 5664 5667
5588 5583 5582 5582 5578 5586 5592 5602 5605 5609 5583 5610 5622 5635 5636 5643 5634 5653 5655 5648 5641 5633 5634 5630 5649 5648 5646 5646 5648 5643 5656 5655 5653 5644 5633 5653 5634 5665 5676 5678 5677 5670 5661 5658 5658
5587 5582 5581 5584 5590 5589 5607 5596 5597 5596 5566 5618 5618 5645 5639 5632 5638 5638 5652 5642 5629 5634 5630 5629 5642 5635 5636 5650 5646 5642 5653 5651 5649 5636 5635 5642 5624 5664 5668 5666 5668 5661 5661 5655 5655
5583 5580 5578 5577 5583 5596 5588 5589 5583 5567 5560 5607 5620 5620 5617 5624 5630 5631 5632 5640 5637 5628 5631 5629 5644 5642 5644 5649 5648 5648 5642 5627 5623 5615 5606 5635 5626 5662 5657 5665 5667 5660 5658 5655 5649
5579 5578 5577 5580 5584 5579 5584 5572 5552 5558 5603 5603 5608 5616 5614 5611 5616 5617 5613 5609 5607 5599 5604 5624 5627 5640 5643 5631 5636 5634 5620 5599 5599 5595 5608 5633 5620 5663 5676 5673 5675 5668 5660 5652 5647
5567 5571 5573 5576 5573 5570 5573 5559 5552 5581 5593 5614 5612 5607 5602 5609 5607 5609 5604 5600 5609 5611 5597 5593 5597 5620 5636 5631 5625 5618 5617 5598 5599 5599 5616 5628 5624 5660 5676 5671 5677 5673 5665 5651 5643
5557 5562 5565 5565 5561 5562 5562 5560 5585 5587 5605 5605 5603 5596 5596 5606 5605 5602 5595 5598 5610 5610 5600 5589 5597 5622 5630 5633 5630 5616 5608 5625 5606 5604 5601 5622 5640 5664 5672 5668 5664 5659 5654 5650 5645
5555 5556 5563 5559 5554 5551 5556 5576 5584 5601 5610 5608 5595 5595 5586 5592 5595 5594 5589 5605 5607 5613 5617 5608 5594 5611 5616 5624 5622 5622 5624 5604 5595 5595 5593 5613 5621 5639 5659 5663 5655 5650 5652 5650 5646
5545 5552 5553 5547 5542 5542 5566 5574 5586 5609 5612 5605 5597 5590 5596 5592 5592 5588 5591 5611 5616 5611 5615 5605 5600 5599 5610 5609 5612 5607 5607 5607 5602 5593 5594 5598 5622 5651 5654 5654 5653 5649 5650 5651 5646
5542 5539 5539 5536 5529 5553 5553 5571 5596 5601 5607 5609 5611 5608 5600 5595 5590 5588 5593 5605 5619 5617 5598 5606 5591 5580 5599 5612 5613 5614 5614 5604 5585 5600 5591 5596 5617 5657 5654 5651 5648 5653 5651 5649 5646
5532 5525 5525 5533 5544 5552 5558 5569 5587 5592 5598 5601 5604 5612 5610 5598 5594 5598 5599 5615 5616 5610 5607 5606 5582 5578 5590 5597 5605 5606 5612 5613 5604 5599 5596 5597 5620 5651 5649 5651 5649 5645 5644 5640 5635
5518 5521 5514 5519 5537 5557 5560 5569 5576 5589 5593 5600 5604 5608 5607 5601 5604 5594 5600 5608 5610 5612 5613 5615 5592 5602 5601 5608 5606 5602 5610 5612 5609 5596 5606 5598 5621 5638 5639 5638 5643 5644 5639 5635 5632
5523 5530 5550 5540 5540 5554 5560 5572 5576 5579 5591 5598 5594 5597 5599 5595 5595 5595 5596 5597 5602 5605 5608 5601 5592 5597 5606 5612 5609 5613 5614 5609 5604 5616 5601 5630 5609 5641 5630 5631 5636 5638 5635 5626 5619
5527 5534 5539 5550 5539 5544 5556 5566 5577 5586 5588 5587 5589 5594 5596 5592 5598 5595 5595 5593 5596 5597 5599 5600 5596 5596 5599 5610 5605 5608 5609 5609 5610 5614 5606 5614 5615 5634 5632 5632 5632 5628 5623 5619 5617
5521 5547 5546 5542 5535 5541 5568 5576 5580 5581 5586 5593 5596 5592 5586 5593 5604 5606 5605 5602 5606 5597 5593 5594 5589 5586 5586 5599 5596 5586 5603 5610 5612 5616 5621 5602 5632 5630 5629 5625 5623 5622 5616 5615 5611